Regional Weather Roundup
Issued by NWS

Home | Current Version | Previous Version | Text Only | Print | Product List | Glossary On
Versions: 1 2 3 4 5 6 7 8 9 10 11 12 13 14 15 16 17 18 19 20 21 22 23 24 25 26 27 28 29 30 31 32 33 34 35 36 37 38 39 40 41 42 43 44 45 46 47 48 49 50
000
ASUS45 KPSR 280710
RWRAZ

ARIZONA REGIONAL HOURLY WEATHER ROUNDUP
NATIONAL WEATHER SERVICE PHOENIX AZ
1200 AM MST SAT FEB 28 2015

NOTE: FAIR INDICATES FEW OR NO CLOUDS BELOW 12,000 FEET WITH NO
SIGNIFICANT WEATHER AND/OR OBSTRUCTIONS TO VISIBILITY.

AZZ001>003-036-280800-
NORTHWEST ARIZONA

CITY           SKY/WX    TMP DP  RH WIND       PRES   REMARKS
BULLHEAD CITY  CLEAR     64  36  34 CALM      29.60S
KINGMAN        PTCLDY    53  36  52 SW18      29.62R
$$

AZZ004>008-015-016-018-280800-
NORTH CENTRAL ARIZONA

CITY           SKY/WX    TMP DP  RH WIND       PRES   REMARKS
GRAND CANYON   CLOUDY    34  29  82 NE6       29.69F WCI  29
PRESCOTT       PTCLDY    45  30  55 S10       29.72F
FLAGSTAFF      CLOUDY    37  28  70 SW12      29.72F WCI  29
PAYSON         CLOUDY    46  39  76 SW6       29.78S
PAGE           CLOUDY    40  35  83 SE3       29.72F
$$

AZZ009>014-017-280800-
NORTHEAST ARIZONA

CITY           SKY/WX    TMP DP  RH WIND       PRES   REMARKS
WINSLOW        MOCLDY    38  34  85 S3        29.75R
SAINT JOHNS    CLOUDY    42  26  53 SW9       29.74F
WINDOW ROCK    CLOUDY    32  29  88 NW3       29.76S
SHOW LOW       PTCLDY    39  28  65 S18G24    29.77F WCI  30
$$

AZZ023-280800-
GREATER PHOENIX AREA

CITY           SKY/WX    TMP DP  RH WIND       PRES   REMARKS
PHOENIX        PTCLDY    66  38  35 S8        29.68R
BUCKEYE        MOCLDY    59  41  51 S8        29.70S
LUKE AFB       CLEAR     59  41  50 SW14      29.68R
DEER VALLEY    MOCLDY    62  37  39 SW6       29.69S
SCOTTSDALE     PTCLDY    64  38  38 S5        29.71R
MESA-GATEWAY   PTCLDY    61  39  44 S7        29.73S
$$

AZZ027-028-280800-
SOUTHWEST MARICOPA COUNTY AND PINAL COUNTY

CITY           SKY/WX    TMP DP  RH WIND       PRES   REMARKS
CASA GRANDE    CLEAR     59  37  44 SE6       29.73S
GILA BEND      FAIR      64  44  47 S14       29.69S
$$

AZZ503-504-507>509-280800-
SOUTHEAST ARIZONA

CITY           SKY/WX    TMP DP  RH WIND       PRES   REMARKS
TUCSON         CLEAR     60  37  42 SW5       29.79F
DAVIS-MONTHAN  CLEAR     58  37  45 W5        29.78S
NOGALES        CLEAR     54  38  54 S15G23    29.85S
SIERRA VISTA   CLEAR     53  35  50 S10       29.84R
DOUGLAS        CLEAR     55  39  54 SW10G20   29.85R
SAFFORD        PTCLDY    53  31  42 E7        29.75S
$$

AZZ020-021-025-026-031-280800-
SOUTHWEST ARIZONA

CITY           SKY/WX    TMP DP  RH WIND       PRES   REMARKS
YUMA           CLEAR     64  43  46 W6        29.70R
$$

CAZ031-033-041-043-047-048-061-280800-
SOUTHERN CALIFORNIA

CITY           SKY/WX    TMP DP  RH WIND       PRES   REMARKS
DOWNTOWN L.A.  CLEAR     57  50  77 CALM      29.75F
L.A. AIRPORT   PTCLDY    57  50  77 W16G22    29.75F
SAN DIEGO      MOCLDY    62  51  67 W9        29.84S
BURBANK        MOCLDY    57  50  77 SE7       29.74F
ONTARIO        MOCLDY    56  50  80 SW7       29.76F
RIVERSIDE      CLOUDY    57  49  74 W7        29.77S
PALM SPRINGS   CLEAR     65  42  43 E8        29.65S
EL CENTRO NAS  CLEAR     65  44  46 W22G32    29.70S
IMPERIAL       CLEAR     64  45  49 W15G25    29.70R
BLYTHE         PTCLDY    63  44  50 SW16      29.64R
NEEDLES        CLEAR     64  35  34 W18       29.60S
$$

NVZ020-UTZ003-280800-
SOUTHERN NEVADA-UTAH

CITY           SKY/WX    TMP DP  RH WIND       PRES   REMARKS
LAS VEGAS      PTCLDY    57  36  45 S17       29.51S
SALT LAKE CITY PTCLDY    32  23  69 SE7       29.69S WCI  26
$$

NMZ009-TXZ055-280800-
NEW MEXICO-WEST TEXAS

CITY           SKY/WX    TMP DP  RH WIND       PRES   REMARKS
ALBUQUERQUE    LGT SNOW  21  18  88 N7        29.90F FOG     WCI  12
EL PASO        MOCLDY    29  20  69 NE8       29.96S WCI  21
$$


........................KEY........................
SKY/WX - SKY CONDITION/WEATHER
TMP    - TEMPERATURE IN FAHRENHEIT
DP     - DEW POINT IN FAHRENHEIT
RH     - RELATIVE HUMIDITY IN PERCENT
WIND   - DIRECTION AND SPEED IN MILES PER HOUR (MPH)
VRB    - VARIABLE WIND DIRECTION
PRES   - MEAN SEA LEVEL PRESSURE IN INCHES OF MERCURY
         F - FALLING PRESSURE   R - RISING PRESSURE
         S - STEADY PRESSURE
VSB    - VISIBILITY IN MILES
HX     - HEAT INDEX IN FAHRENHEIT
WCI    - WIND CHILL INDEX IN FAHRENHEIT
TC     - TEMPERATURE IN CELSIUS WHICH IS ALSO KNOWN AS
         TEMPERATURE IN CENTIGRADE
AFB    - AIR FORCE BASE
         LUKE AFB IS LUKE AIR FORCE BASE
         DAVIS-MONTHAN IS DAVIS-MONTHAN AIR FORCE BASE
NAS    - NAVAL AIR STATION
         EL CENTRO NAS IS EL CENTRO NAVAL AIR STATION
N/A    - NOT AVAILABLE



USA.gov is the U.S. government's official web portal to all federal, state and local government web resources and services.